Flag for Denmark Weather past 2 weeks in Vejle, Denmark

45 °F

Sprinkles. Partly sunny.

Feels Like: 41 °F
Forecast: 46 / 52 °F
Wind: 7 mph from Northeast

Location: Billund Lufthavn

Current Time: Oct 13, 2015 at 7:22:36 PM

Latest Report: Oct 13, 2015 at 6:50 PM

Visibility: N/A

Pressure: 30.24 "Hg

Humidity: 93%

Dew point: 43 °F

Location of VejleLocation

Historic Weather in Vejle — Graph


Vejle temperature yesterday

Maximum temperature yesterday: 50 °F (at 2:20 PM)
Minimum temperature yesterday: 41 °F (at 7:50 AM)
Average temperature yesterday: 46 °F

Past Weeks' High & Low Weather Summary

High64 °F (Oct 2, 1:50 PM)100% (Sep 28, 10:20 PM)30.74 "Hg (Sep 28, 10:20 PM)
Low34 °F (Sep 29, 6:20 AM)46% (Oct 2, 2:20 PM)29.77 "Hg (Oct 6, 4:50 PM)
Average50 °F87%30.23 "Hg
* Reported Sep 28 6:20 PM — Oct 13 6:20 PM, Vejle, Weather by CustomWeather, © 2015

Note: Actual official high and low records may vary slightly from our data, if they occured in-between our weather recording intervals... More about our weather records


Vejle weather history for previous 24 hours

Time TempWeatherWind HumidityBarometerVisibility
6:20 PM
Tue, Oct 13
45 °FSprinkles. Partly sunny.7 mph93%30.24 "Hg6 mi
5:50 PM45 °FSprinkles. Partly sunny.8 mph93%30.24 "HgN/A
5:20 PM45 °FSprinkles. Partly sunny.8 mph93%30.24 "HgN/A
4:50 PM46 °FPartly sunny.13 mph87%30.24 "HgN/A
4:20 PM46 °FBroken clouds.8 mph87%30.24 "HgN/A
3:50 PM45 °FLight rain. Partly sunny.8 mph93%30.24 "HgN/A
3:20 PM45 °FRain showers. Partly sunny.12 mph93%30.24 "Hg3 mi
2:50 PM45 °FSprinkles. Partly sunny.7 mph93%30.24 "HgN/A
2:20 PM46 °FSprinkles. Partly sunny.13 mph87%30.27 "HgN/A
1:50 PM46 °FSprinkles. Broken clouds.12 mph87%30.27 "HgN/A
1:20 PM46 °FBroken clouds.10 mph93%30.27 "HgN/A
12:50 PM45 °FSprinkles. Partly sunny.10 mph93%30.27 "HgN/A
12:20 PM43 °FRain. Partly sunny.12 mph93%30.27 "HgN/A
11:50 AM45 °FPartly sunny.10 mph87%30.27 "HgN/A
11:20 AM45 °FBroken clouds.10 mph87%30.27 "HgN/A
10:50 AM43 °FSprinkles. Partly sunny.12 mph93%30.27 "HgN/A
10:20 AM43 °FBroken clouds.12 mph87%30.27 "HgN/A
9:50 AM43 °FDrizzle. Partly sunny.12 mph81%30.27 "HgN/A
9:20 AM41 °FPartly sunny.8 mph87%30.27 "HgN/A
8:50 AM41 °FPartly sunny.9 mph87%30.27 "HgN/A
8:20 AM41 °FPassing clouds.10 mph81%30.27 "HgN/A
7:50 AM43 °FPassing clouds.12 mph81%30.27 "HgN/A
7:20 AM43 °FOvercast.10 mph81%30.27 "HgN/A
6:50 AM43 °FOvercast.10 mph76%30.27 "HgN/A
6:20 AM43 °FOvercast.12 mph76%30.27 "HgN/A
5:20 AM43 °FPassing clouds.10 mph76%30.27 "HgN/A
4:50 AM43 °FPassing clouds.7 mph81%30.27 "HgN/A
4:20 AM43 °FPassing clouds.8 mph76%30.27 "HgN/A
3:50 AM45 °FPassing clouds.12 mph76%30.27 "HgN/A
3:20 AM43 °FOvercast.7 mph81%30.27 "HgN/A
2:50 AM43 °FPassing clouds.8 mph81%30.27 "HgN/A
2:20 AM41 °FPassing clouds.6 mph87%30.27 "HgN/A
1:50 AM41 °FPassing clouds.7 mph81%30.27 "HgN/A
1:20 AM43 °FPassing clouds.8 mph76%30.27 "HgN/A
12:50 AM43 °FPassing clouds.8 mph76%30.27 "HgN/A
12:20 AM43 °FPassing clouds.7 mph76%30.27 "HgN/A
11:50 PM
Mon, Oct 12
43 °FOvercast.7 mph76%30.27 "HgN/A
11:20 PM43 °FPassing clouds.7 mph71%30.27 "HgN/A
10:50 PM45 °FPassing clouds.7 mph66%30.27 "HgN/A
10:20 PM45 °FOvercast.7 mph71%30.27 "HgN/A
9:50 PM45 °FOvercast.7 mph71%30.27 "HgN/A
9:20 PM45 °FOvercast.9 mph66%30.27 "HgN/A
8:50 PM45 °FOvercast.7 mph66%30.27 "HgN/A
8:20 PM45 °FOvercast.8 mph71%30.27 "HgN/A
7:50 PM45 °FPassing clouds.7 mph76%30.27 "HgN/A
7:20 PM46 °FPartly sunny.7 mph66%30.27 "HgN/A
Weather by CustomWeather, © 2015

See weather overviewHow to use our weather pages